| time (UTC) | temp C | wind direction | speed KPH | gust KPH | rain 1hr cm | rain 24hr cm | rain mn cm | humidity % | barometer mb |
| 20260510111903 | 12 | 357 | 1.6 | 20.9 | 0.00 | 0.00 | 0.00 | 43 | 1017.4 |
| 20260510111403 | 12 | 356 | 1.6 | 12.9 | 0.00 | 0.00 | 0.00 | 43 | 1017.5 |
| 20260510110405 | 12 | 63 | 0.0 | 11.3 | 0.00 | 0.00 | 0.00 | 43 | 1017.5 |
| 20260510104404 | 11 | 8 | 1.6 | 9.7 | 0.00 | 0.00 | 0.00 | 41 | 1017.8 |
| 20260510103903 | 11 | 46 | 3.2 | 14.5 | 0.00 | 0.00 | 0.00 | 42 | 1017.8 |
| 20260510103404 | 11 | 14 | 6.4 | 19.3 | 0.00 | 0.00 | 0.00 | 41 | 1017.9 |
| 20260510100405 | 11 | 50 | 4.8 | 20.9 | 0.00 | 0.00 | 0.00 | 37 | 1018.1 |
| 20260510094905 | 10 | 71 | 4.8 | 19.3 | 0.00 | 0.00 | 0.00 | 34 | 1018.4 |
| 20260510093904 | 10 | 37 | 4.8 | 25.7 | 0.00 | 0.00 | 0.00 | 33 | 1018.3 |
| 20260510093405 | 10 | 66 | 8.0 | 20.9 | 0.00 | 0.00 | 0.00 | 32 | 1018.5 |
| 20260510084904 | 8 | 44 | 9.7 | 24.1 | 0.00 | 0.00 | 0.00 | 13 | 1018.8 |
| 20260510083905 | 8 | 78 | 4.8 | 19.3 | 0.00 | 0.00 | 0.00 | 6 | 1018.7 |
| 20260510083403 | 8 | 62 | 8.0 | 19.3 | 0.00 | 0.00 | 0.00 | 6 | 1018.7 |
| 20260510081905 | 8 | 42 | 6.4 | 16.1 | 0.00 | 0.00 | 0.00 | 3 | 1018.9 |
| 20260510080904 | 8 | 64 | 4.8 | 20.9 | 0.00 | 0.00 | 0.00 | 3 | 1018.9 |
| 20260510071404 | 7 | 63 | 4.8 | 22.5 | 0.00 | 0.13 | 0.00 | 3 | 1018.9 |
| 20260510064903 | 7 | 48 | 1.6 | 8.0 | 0.00 | 0.13 | 0.00 | 3 | 1019.0 |
| 20260510063903 | 7 | 51 | 1.6 | 8.0 | 0.00 | 0.13 | 0.00 | 3 | 1018.9 |
| 20260510061904 | 6 | 32 | 1.6 | 8.0 | 0.00 | 0.13 | 0.00 | 3 | 1018.9 |
| 20260510060904 | 6 | 40 | 0.0 | 4.8 | 0.00 | 0.13 | 0.00 | 3 | 1018.9 |
| 20260510054903 | 6 | 22 | 3.2 | 11.3 | 0.00 | 0.13 | 0.00 | 3 | 1018.7 |
| 20260510054403 | 6 | 42 | 0.0 | 4.8 | 0.00 | 0.13 | 0.00 | 3 | 1018.7 |
| 20260510053904 | 6 | 49 | 3.2 | 4.8 | 0.00 | 0.13 | 0.00 | 3 | 1018.7 |
| 20260510051403 | 5 | 55 | 1.6 | 4.8 | 0.00 | 0.13 | 0.00 | 3 | 1018.8 |
| 20260510041403 | 5 | 4 | 0.0 | 0.0 | 0.00 | 0.13 | 0.00 | 3 | 1019.0 |
| 20260510034904 | 5 | 27 | 0.0 | 0.0 | 0.00 | 0.13 | 0.00 | 3 | 1019.1 |
| 20260510034404 | 5 | 27 | 0.0 | 4.8 | 0.00 | 0.13 | 0.00 | 3 | 1019.1 |
| 20260510031403 | 6 | 20 | 0.0 | 8.0 | 0.00 | 0.13 | 0.00 | 3 | 1019.2 |
| 20260510030904 | 6 | 14 | 0.0 | 4.8 | 0.00 | 0.13 | 0.00 | 3 | 1019.3 |
| 20260510024905 | 7 | 21 | 0.0 | 0.0 | 0.00 | 0.13 | 0.00 | 3 | 1019.2 |
| 20260510024404 | 7 | 21 | 0.0 | 0.0 | 0.00 | 0.13 | 0.00 | 3 | 1019.3 |
| 20260510023904 | 7 | 24 | 0.0 | 1.6 | 0.00 | 0.13 | 0.00 | 3 | 1019.2 |
| 20260510023405 | 7 | 27 | 0.0 | 0.0 | 0.00 | 0.13 | 0.00 | 3 | 1019.2 |
| 20260510021904 | 7 | 27 | 0.0 | 0.0 | 0.00 | 0.13 | 0.00 | 3 | 1019.2 |
| 20260510020903 | 7 | 27 | 0.0 | 0.0 | 0.00 | 0.13 | 0.00 | 3 | 1019.1 |
| 20260510020405 | 7 | 26 | 0.0 | 4.8 | 0.00 | 0.13 | 0.00 | 3 | 1019.1 |
| 20260510014903 | 7 | 42 | 0.0 | 0.0 | 0.00 | 0.13 | 0.00 | 3 | 1019.0 |
| 20260510013903 | 7 | 17 | 0.0 | 0.0 | 0.00 | 0.13 | 0.00 | 3 | 1019.0 |
| 20260510013404 | 7 | 4 | 0.0 | 4.8 | 0.00 | 0.13 | 0.00 | 3 | 1019.1 |
| 20260510004404 | 7 | 37 | 1.6 | 8.0 | 0.00 | 0.13 | 0.00 | 3 | 1019.0 |
| 20260510003903 | 7 | 39 | 0.0 | 9.7 | 0.00 | 0.13 | 0.00 | 3 | 1019.0 |
| 20260510003404 | 7 | 25 | 0.0 | 11.3 | 0.00 | 0.13 | 0.00 | 3 | 1019.0 |
| 20260510001904 | 7 | 36 | 1.6 | 8.0 | 0.00 | 0.13 | 0.00 | 3 | 1019.1 |
| 20260510001404 | 7 | 45 | 0.0 | 9.7 | 0.00 | 0.13 | 0.00 | 3 | 1019.2 |
| 20260509231403 | 7 | 53 | 1.6 | 4.8 | 0.00 | 0.13 | 0.00 | 3 | 1019.3 |
| 20260509230905 | 7 | 56 | 1.6 | 16.1 | 0.00 | 0.13 | 0.00 | 3 | 1019.2 |
| 20260509230404 | 7 | 41 | 1.6 | 19.3 | 0.00 | 0.13 | 0.00 | 3 | 1019.2 |
| 20260509224903 | 7 | 41 | 0.0 | 9.7 | 0.00 | 0.13 | 0.13 | 3 | 1019.1 |
| 20260509224404 | 7 | 69 | 0.0 | 8.0 | 0.00 | 0.13 | 0.13 | 3 | 1019.0 |
| 20260509223904 | 7 | 44 | 3.2 | 16.1 | 0.00 | 0.13 | 0.13 | 3 | 1019.0 |
| 20260509223404 | 7 | 61 | 3.2 | 14.5 | 0.00 | 0.13 | 0.13 | 3 | 1019.0 |
| 20260509221904 | 7 | 61 | 1.6 | 9.7 | 0.00 | 0.13 | 0.13 | 3 | 1019.0 |
| 20260509221405 | 7 | 73 | 1.6 | 14.5 | 0.00 | 0.13 | 0.13 | 3 | 1018.9 |
| 20260509220903 | 7 | 61 | 3.2 | 14.5 | 0.00 | 0.13 | 0.13 | 3 | 1019.0 |
| 20260509211904 | 7 | 42 | 3.2 | 14.5 | 0.00 | 0.13 | 0.13 | 3 | 1019.1 |
| 20260509210904 | 7 | 36 | 1.6 | 9.7 | 0.00 | 0.13 | 0.13 | 3 | 1018.9 |
| 20260509204403 | 7 | 48 | 8.0 | 22.5 | 0.00 | 0.13 | 0.13 | 3 | 1018.7 |
| 20260509203904 | 7 | 20 | 8.0 | 22.5 | 0.00 | 0.13 | 0.13 | 3 | 1018.7 |
| 20260509203404 | 7 | 41 | 4.8 | 19.3 | 0.00 | 0.13 | 0.13 | 3 | 1018.7 |
| 20260509201903 | 8 | 15 | 3.2 | 9.7 | 0.00 | 0.13 | 0.13 | 3 | 1018.5 |
| 20260509201404 | 8 | 25 | 3.2 | 14.5 | 0.00 | 0.13 | 0.13 | 3 | 1018.2 |
| 20260509200405 | 8 | 39 | 3.2 | 14.5 | 0.00 | 0.13 | 0.13 | 3 | 1018.0 |
| 20260509194403 | 8 | 49 | 3.2 | 14.5 | 0.00 | 0.13 | 0.13 | 3 | 1018.0 |
| 20260509193903 | 8 | 44 | 4.8 | 16.1 | 0.00 | 0.13 | 0.13 | 3 | 1017.9 |
| 20260509193403 | 8 | 46 | 6.4 | 19.3 | 0.00 | 0.13 | 0.13 | 3 | 1017.9 |
| 20260509191905 | 10 | 47 | 3.2 | 19.3 | 0.00 | 0.13 | 0.13 | 3 | 1017.7 |
| 20260509191405 | 10 | 48 | 3.2 | 14.5 | 0.00 | 0.15 | 0.13 | 3 | 1017.7 |
| 20260509190404 | 10 | 52 | 3.2 | 19.3 | 0.00 | 0.18 | 0.13 | 3 | 1017.6 |
| 20260509184903 | 10 | 50 | 6.4 | 19.3 | 0.00 | 0.18 | 0.13 | 3 | 1017.4 |
| 20260509184403 | 10 | 41 | 1.6 | 14.5 | 0.00 | 0.18 | 0.13 | 3 | 1017.3 |
| 20260509183903 | 10 | 41 | 4.8 | 16.1 | 0.00 | 0.18 | 0.13 | 3 | 1017.3 |
| 20260509183405 | 10 | 47 | 4.8 | 19.3 | 0.00 | 0.18 | 0.13 | 3 | 1017.3 |
| 20260509181904 | 11 | 57 | 1.6 | 9.7 | 0.00 | 0.18 | 0.13 | 3 | 1017.1 |
| 20260509181403 | 11 | 46 | 3.2 | 14.5 | 0.00 | 0.23 | 0.13 | 3 | 1017.0 |
| 20260509174904 | 12 | 59 | 1.6 | 12.9 | 0.00 | 0.23 | 0.13 | 3 | 1016.9 |
| 20260509174404 | 12 | 35 | 4.8 | 20.9 | 0.00 | 0.23 | 0.13 | 3 | 1016.8 |
| 20260509173903 | 12 | 50 | 8.0 | 24.1 | 0.00 | 0.23 | 0.13 | 3 | 1016.8 |
| 20260509171905 | 12 | 22 | 8.0 | 19.3 | 0.00 | 0.23 | 0.13 | 3 | 1016.5 |
| 20260509171403 | 12 | 46 | 8.0 | 19.3 | 0.00 | 0.23 | 0.13 | 3 | 1016.5 |
| 20260509170904 | 12 | 28 | 3.2 | 20.9 | 0.00 | 0.23 | 0.13 | 3 | 1016.5 |
| 20260509164904 | 12 | 28 | 1.6 | 11.3 | 0.00 | 0.23 | 0.13 | 3 | 1016.5 |
| 20260509164403 | 12 | 51 | 3.2 | 14.5 | 0.00 | 0.23 | 0.13 | 3 | 1016.4 |
| 20260509163404 | 12 | 47 | 3.2 | 16.1 | 0.00 | 0.23 | 0.13 | 3 | 1016.1 |
| 20260509161404 | 12 | 55 | 4.8 | 19.3 | 0.00 | 0.23 | 0.13 | 3 | 1016.0 |
| 20260509144404 | 16 | 276 | 11.3 | 20.9 | 0.00 | 0.23 | 0.13 | 3 | 1016.0 |
| 20260509143905 | 16 | 315 | 4.8 | 19.3 | 0.00 | 0.23 | 0.13 | 3 | 1016.0 |
| 20260509141404 | 15 | 278 | 9.7 | 19.3 | 0.00 | 0.23 | 0.13 | 3 | 1016.0 |
| 20260509140405 | 15 | 271 | 8.0 | 20.9 | 0.00 | 0.23 | 0.13 | 3 | 1016.0 |
| 20260509134904 | 17 | 306 | 1.6 | 20.9 | 0.00 | 0.23 | 0.13 | 3 | 1016.0 |
| 20260509134404 | 17 | 306 | 8.0 | 20.9 | 0.00 | 0.23 | 0.13 | 3 | 1016.0 |
| 20260509131904 | 17 | 313 | 8.0 | 19.3 | 0.00 | 0.23 | 0.13 | 3 | 1016.1 |
| 20260509130404 | 17 | 298 | 11.3 | 19.3 | 0.00 | 0.23 | 0.13 | 3 | 1016.1 |
| 20260509124904 | 16 | 261 | 6.4 | 16.1 | 0.00 | 0.23 | 0.13 | 3 | 1016.1 |
| 20260509124404 | 16 | 301 | 11.3 | 20.9 | 0.00 | 0.23 | 0.13 | 3 | 1016.2 |
| 20260509123404 | 16 | 297 | 4.8 | 20.9 | 0.00 | 0.23 | 0.13 | 3 | 1016.3 |
| 20260509120904 | 16 | 304 | 3.2 | 19.3 | 0.00 | 0.23 | 0.13 | 3 | 1016.3 |
| 20260509114904 | 15 | 252 | 6.4 | 11.3 | 0.00 | 0.23 | 0.13 | 3 | 1016.4 |
| 20260509113903 | 15 | 328 | 0.0 | 8.0 | 0.00 | 0.23 | 0.13 | 3 | 1016.4 |
| 20260509113404 | 15 | 320 | 4.8 | 11.3 | 0.00 | 0.23 | 0.13 | 3 | 1016.5 |